Location: Cointrin
(46.2167°N, 6.1167°E)
Time: 16:07:58
(UTC+00:00)

Cosmos 968 Rocket - Visible Passes

Search period start: 13 January 2025 00:00
Search period end: 23 January 2025 00:00
Orbit: 736 x 767 km, 74.0° (Epoch: 12 January)

Date Brightness Start Highest point End Pass type
(mag) Time Alt. Az. Time Alt. Az. Time Alt. Az.
13 Jan 5.9 04:06:58 10° SE 04:10:45 21° E 04:14:33 10° NE visible
13 Jan 3.5 05:46:51 10° SW 05:52:00 57° WNW 05:57:12 10° NNE visible
14 Jan 6.6 03:28:04 10° ESE 03:29:18 11° E 03:30:31 10° ENE visible
14 Jan 3.5 05:04:51 10° SSW 05:10:04 81° ESE 05:15:21 10° NNE visible
15 Jan 4.5 04:23:20 10° S 04:28:18 44° ESE 04:33:16 10° NNE visible
15 Jan 4.3 06:05:40 10° WSW 06:10:11 28° WNW 06:14:43 10° N visible
16 Jan 5.5 03:43:56 17° SE 03:46:38 25° E 03:50:50 10° NE visible
16 Jan 3.7 05:24:03 16° SW 05:28:03 48° WNW 05:33:09 10° NNE visible
17 Jan 6.2 03:04:57 13° E 03:05:08 13° E 03:07:36 10° ENE visible
17 Jan 3.3 04:44:59 58° SSW 04:46:04 84° WNW 04:51:21 10° NNE visible
17 Jan 5.1 06:25:36 10° W 06:28:38 15° NW 06:31:41 10° NNW visible
18 Jan 4.3 04:05:09 48° ENE 04:05:09 48° ENE 04:09:21 10° NNE visible
18 Jan 4.5 05:45:08 23° WNW 05:46:16 24° NW 05:50:34 10° N visible
19 Jan 5.7 03:24:55 21° ENE 03:24:55 21° ENE 03:27:03 10° NE visible
19 Jan 4.1 05:04:54 38° NW 05:04:54 38° NW 05:09:03 10° N visible
20 Jan 4.6 04:24:25 33° N 04:24:25 33° N 04:27:20 10° NNE visible
20 Jan 5.2 06:04:23 13° NW 06:04:48 13° NW 06:07:14 10° NNW visible
21 Jan 5.6 03:43:47 20° NNE 03:43:47 20° NNE 03:45:23 10° NNE visible
21 Jan 5.0 05:23:44 19° NNW 05:23:44 19° NNW 05:26:20 10° N visible
22 Jan 6.4 03:03:03 11° NE 03:03:03 11° NE 03:03:12 10° NE visible
22 Jan 5.2 04:42:59 20° N 04:42:59 20° N 04:44:55 10° N visible
